Regional Weather Roundup
Issued by NWS New Orleans/Baton Rouge, LA

Home | Current Version | Previous Version | Graphics & Text | Print | Product List | Glossary On
Versions: 1 2 3 4 5 6 7 8 9 10 11 12 13 14 15 16 17 18 19 20 21 22 23 24 25 26 27 28 29 30 31 32 33 34 35 36 37 38 39 40 41 42 43 44 45 46 47 48 49 50
113
ASUS44 KLIX 201310
RWRLIX
NEW ORLEANS REGIONAL WEATHER ROUNDUP
NATIONAL WEATHER SERVICE NEW ORLEANS LA
800 AM CDT SAT SEP 20 2014

NOTE: "FAIR" INDICATES FEW OR NO CLOUDS BELOW 12,000 FEET WITH NO
      SIGNIFICANT WEATHER AND/OR OBSTRUCTIONS TO VISIBILITY.
      SKY/WX - SKY CONDITION AND SIGNIFICANT WEATHER.
      TMP - AIR TEMPERATURE.     DP    - DEWPOINT TEMPERATURE.
      RH  - RELATIVE HUMIDITY.   PRES  - PRESSURE.
      HI  - HEAT INDEX.          WCI   - WIND CHILL INDEX.

*  THESE STATIONS ARE NOT NWS OR FAA STATIONS AND ARE NOT UNDER
   NWS QUALITY CONTROL.

LAZ038-040-048-061>063-065>067-069-201400-
SOUTHEAST LOUISIANA

CITY           SKY/WX    TMP DP  RH WIND       PRES   REMARKS
N.O. AUDUBON     N/A     79  73  81 MISG        N/A
N.O. INTL ARPT SUNNY     79  71  76 E9        29.97R
N.O. LAKEFRONT MOSUNNY   78  71  79 E18       29.97R
N.O. DOWNTOWN*   N/A     77  68  73 NE3       29.97R
SLIDELL        SUNNY     73  68  84 NE6       29.98R
BATON ROUGE    SUNNY     71  68  90 NE7       29.99R
BOOTHVILLE     PTSUNNY   81  72  74 E12       29.95R
BELLE CHASSE   PTSUNNY   78  72  81 NE7       29.96R
BOGALUSA*        N/A     72  67  87 CALM      30.02S
GALLIANO*      NOT AVBL
NEW ROADS*       N/A     72  69  89 CALM      30.00R
GONZALES*        N/A     73  73  99 NE5       29.98R
HAMMOND*       SUNNY     73  66  78 NE6       30.01R
HOUMA*         MOSUNNY   75  66  73 NE6       29.95R
PORT FOURCHON* MOSUNNY   82  72  69 E12       29.96S

$$

MSZ070-080>082-201400-
SOUTHERN MISSISSIPPI

CITY           SKY/WX    TMP DP  RH WIND       PRES   REMARKS
MCCOMB         SUNNY     72  67  84 NE3       30.02R
GULFPORT       SUNNY     74  66  76 NE9       29.98R
BILOXI         SUNNY     73  67  79 NE9       29.99R
PASCAGOULA     SUNNY     72  67  84 NE6       30.00R
STENNIS ARPT*  SUNNY     73  64  73 NE7       29.99R

$$

COASTAL OBSERVATIONS
LAKE AND NEARSHORE STATIONS

STATION/POSITION TIME  TEMP    WIND        PRES    WAVE
                       AIR SEA DIR/SP/G            HT/PER
                 (UTC) (F)     (DEG/KT/KT) (MB)    (FT/S)
PASCAGOULA       1300   73      40/  9/ 13 1015.1
WAVELAND YACHT   1300   75      60/ 12/ 14 1014.7
GRAND ISLE       1300   82 82   90/ 12/ 18 1014.3
SOUTHWEST PASS   1300   82 89   80/ 22/ 28 1013.8
NEW CANAL        1300   78 80   70/ 18/ 21 1014.9
SHELL BEACH      1300   80 77   60/ 18/ 21 1014.2

OFFSHORE STATIONS

STATION/POSITION TIME  TEMP    WIND        PRES    WAVE
                       AIR SEA DIR/SP/G            HT/PER
                 (UTC) (F)     (DEG/KT/KT) (MB)    (FT/S)
64 S DAUPHIN ISL 1243   81 84   90/ 21/ 27 1014.0    6/ 7

$$




USA.gov is the U.S. government's official web portal to all federal, state and local government web resources and services.